Regional Weather Roundup
Issued by NWS Burlington, VT

Current Version | Previous Version | Text Only | Print | Product List | Glossary On
Versions: 1 2 3 4 5 6 7 8 9 10 11 12 13 14 15 16 17 18 19 20 21 22 23 24 25 26 27 28 29 30 31 32 33 34 35 36 37 38 39 40 41 42 43 44 45 46 47 48 49 50
000
ASUS41 KBTV 201010
RWRBTV
VERMONT REGIONAL WEATHER ROUNDUP
NATIONAL WEATHER SERVICE BURLINGTON VT
600 AM EDT SAT SEP 20 2014

NOTE: "FAIR" INDICATES FEW OR NO CLOUDS BELOW 12,000 FEET WITH NO
SIGNIFICANT WEATHER AND/OR OBSTRUCTIONS TO VISIBILITY.

* THESE REPORTS ARE NOT UNDER NWS QUALITY CONTROL AND/OR DO NOT
  REPORT WEATHER SUCH AS PRECIPITATION AND FOG.

VTZ001>019-201100-
_____VERMONT_____


CITY           SKY/WX    TMP DP  RH WIND       PRES   REMARKS
BURLINGTON     MOSUNNY   53  41  63 S18G31    30.19F
MONTPELIER     CLOUDY    43  38  82 S7        30.30S
MORRISVILLE    CLOUDY    45  38  76 SW9       30.24F
ST. JOHNSBURY*   N/A     44  37  76 MISG      30.26F
MIDDLEBURY*    CLOUDY    53  44  72 S5        30.25S
RUTLAND*       CLOUDY    48  39  71 SE10G17   30.26F
SPRINGFIELD    CLOUDY    40  39  97 CALM      30.33F
HIGHGATE*      PTSUNNY   52  43  69 S12G22    30.15S
NEWPORT*       FAIR      41  37  83 S9        30.21F
BENNINGTON     CLOUDY    53  45  74 SE8       30.28S

_____LAKE CHAMPLAIN_____


CITY           SKY/WX    TMP DP  RH WIND       PRES   REMARKS
COLCHESTER RF*   N/A     54  46  76 SW37        N/A
DIAMOND ISL*     N/A     50  43  76 SE18        N/A

$$

NYZ007-026>031-035-052-083-201100-
_____NORTHERN NEW YORK_____


CITY           SKY/WX    TMP DP  RH WIND       PRES   REMARKS
PLATTSBURGH    CLOUDY    43  41  93 S3        30.16F
SARANAC LAKE   CLOUDY    51  46  83 SW12      30.13F
MASSENA        MOSUNNY   49  45  86 S3        30.08F
OGDENSBURG*    SUNNY     54  50  87 S6        30.07F
POTSDAM*       SUNNY     59  54  82 SW14G23   30.07F
WATERTOWN      MOSUNNY   60  49  66 S13G23    30.07F
FT DRUM        MOSUNNY   58  50  75 S15G24    30.08F
ALBANY         PTSUNNY   54  45  71 S10       30.27S
GLENS FALLS    CLOUDY    50  44  80 SW6       30.27S

$$
NHZ002-005-011-201100-
_____NEW HAMPSHIRE_____


CITY           SKY/WX    TMP DP  RH WIND       PRES   REMARKS
LEBANON        CLOUDY    46  39  76 S7        30.30F
KEENE          CLOUDY    37  30  75 CALM      30.34F
MT WASHINGTON  FOG       34  34 100 W49G55      N/A  VSB 0
PLYMOUTH       CLOUDY    35  35 100 CALM      30.35S
WHITEFIELD     CLOUDY    34  31  88 CALM      30.28S

$$

_____REGIONAL QUEBEC LOCATIONS_____


CITY           SKY/WX    TMP DP  RH WIND       PRES   REMARKS
MONTREAL       CLOUDY    50  43  76 SE14      30.08F
QUEBEC CITY    CLOUDY    39  36  87 N5        30.12F
SHERBROOKE     PTSUNNY   37  36  93 VRB2      30.17F

_____REGIONAL ONTARIO LOCATIONS_____


CITY           SKY/WX    TMP DP  RH WIND       PRES   REMARKS
OTTAWA         PTSUNNY   52  48  87 S9        30.04F

______KEY______
VSB  - VISIBILITY IN MILES
WCI  - WIND CHILL INDEX
HX   - HEAT INDEX
$$
NNNN



USA.gov is the U.S. government's official web portal to all federal, state and local government web resources and services.